{"data":{"norad_id":63920,"intl_designator":"2025-096C","name":"YAOGAN-40 02C","alt_names":[],"object_type":"PAYLOAD","status":"ACTIVE","operator":null,"country":"PRC","launch_date":"2025-05-11","launch_site_code":"TAISC","launch_vehicle":null,"mission":null,"orbit_class":"UNKNOWN","rcs_meters":null,"size_class":null,"mass_kg":null,"dimensions":null,"purposes":[],"wikipedia_slug":null,"has_3d_model":false,"image_url":null,"decayed_at":null,"tle_current":{"epoch":"2026-09-21T21:50:25.893888Z","epoch_age_seconds":79989,"freshness":"FRESH","line1":"1 63920U 25096C   26264.91002192  .00000089  00000+0  38032-4 0  9992","line2":"2 63920  85.9971 143.9097 0002183  86.9640 273.1793 14.12462526 89069","mean_motion":14.12462526,"eccentricity":0.0002183,"inclination_deg":85.9971,"raan_deg":143.9097,"arg_perigee_deg":86.964,"mean_anomaly_deg":273.1793,"bstar":3.8032e-5,"rev_number":8906,"period_min":101.94960740502,"perigee_km":849.37910749123,"apogee_km":852.53533002714,"semimajor_km":7229.0942187592,"source":"CELESTRAK","updated_at":"2026-09-22T09:00:29.427896Z"}}}